Time,TemperatureF,DewpointF,PressureIn,WindDirection,WindDirectionDegrees,WindSpeedMPH,WindSpeedGustMPH,Humidity,HourlyPrecipIn,Conditions,Clouds,dailyrainin,SolarRadiationWatts/m^2,SoftwareType,DateUTC
2013-10-29 00:01:00,24.6,18.4,30.54,East,98,6.0,10.0,77,0.00,,OVC100,0.00,0.00,VWS V14.00,2013-10-29 05:01:00,
2013-10-29 00:06:00,24.6,18.4,30.53,East,87,8.0,14.0,77,0.00,,OVC100,0.00,0.00,VWS V14.00,2013-10-29 05:06:00,
2013-10-29 00:11:00,24.6,18.4,30.53,East,94,9.0,14.0,77,0.00,,OVC100,0.00,0.00,VWS V14.00,2013-10-29 05:11:00,
2013-10-29 00:16:00,24.6,18.4,30.53,East,95,9.0,14.0,77,0.00,,OVC100,0.00,0.00,VWS V14.00,2013-10-29 05:16:00,
2013-10-29 00:21:00,24.6,18.4,30.53,East,90,8.0,14.0,77,0.00,,OVC100,0.00,0.00,VWS V14.00,2013-10-29 05:21:00,
2013-10-29 00:26:00,24.7,18.5,30.53,East,90,7.0,14.0,77,0.00,,OVC100,0.00,0.00,VWS V14.00,2013-10-29 05:26:00,
2013-10-29 00:31:00,24.7,18.5,30.53,East,96,9.0,10.0,77,0.00,,OVC100,0.00,0.00,VWS V14.00,2013-10-29 05:31:00,
2013-10-29 00:36:00,24.6,18.4,30.53,East,93,7.0,13.0,77,0.00,,OVC100,0.00,0.00,VWS V14.00,2013-10-29 05:36:00,
2013-10-29 00:41:00,24.6,18.4,30.53,ESE,102,5.0,13.0,77,0.00,,OVC110,0.00,0.00,VWS V14.00,2013-10-29 05:41:00,
2013-10-29 00:46:00,24.5,18.3,30.53,East,97,6.0,13.0,77,0.00,,OVC110,0.00,0.00,VWS V14.00,2013-10-29 05:46:00,
2013-10-29 00:51:00,24.5,18.3,30.54,East,98,5.0,13.0,77,0.00,,OVC110,0.00,0.00,VWS V14.00,2013-10-29 05:51:00,
2013-10-29 00:56:00,24.6,18.4,30.54,East,99,5.0,13.0,77,0.00,,OVC110,0.00,0.00,VWS V14.00,2013-10-29 05:56:00,
2013-10-29 01:01:00,24.6,18.4,30.54,East,94,6.0,9.0,77,0.00,,OVC110,0.00,0.00,VWS V14.00,2013-10-29 06:01:00,
2013-10-29 01:06:00,24.6,18.4,30.53,East,98,7.0,9.0,77,0.00,,OVC110,0.00,0.00,VWS V14.00,2013-10-29 06:06:00,
2013-10-29 01:11:00,24.6,18.7,30.53,ESE,105,10.0,10.0,78,0.00,,OVC110,0.00,0.00,VWS V14.00,2013-10-29 06:11:00,
2013-10-29 01:16:00,24.6,18.4,30.53,East,98,3.0,11.0,77,0.00,,OVC110,0.00,0.00,VWS V14.00,2013-10-29 06:16:00,
2013-10-29 01:21:00,24.7,18.8,30.53,East,101,5.0,11.0,78,0.00,,OVC110,0.00,0.00,VWS V14.00,2013-10-29 06:21:00,
2013-10-29 01:26:00,24.7,18.5,30.53,ESE,107,4.0,11.0,77,0.00,,OVC110,0.00,0.00,VWS V14.00,2013-10-29 06:26:00,
2013-10-29 01:31:00,24.7,18.8,30.53,ESE,109,8.0,10.0,78,0.00,,OVC110,0.00,0.00,VWS V14.00,2013-10-29 06:31:00,
2013-10-29 01:36:00,24.7,18.8,30.53,ESE,105,7.0,10.0,78,0.00,,OVC110,0.00,0.00,VWS V14.00,2013-10-29 06:36:00,
2013-10-29 01:41:00,24.7,18.8,30.53,ESE,107,3.0,10.0,78,0.00,,OVC090,0.00,0.00,VWS V14.00,2013-10-29 06:41:00,
2013-10-29 01:46:00,24.7,18.8,30.53,ESE,123,8.0,10.0,78,0.00,,OVC090,0.00,0.00,VWS V14.00,2013-10-29 06:46:00,
2013-10-29 01:51:00,24.8,18.9,30.53,ESE,121,8.0,10.0,78,0.00,,OVC090,0.00,0.00,VWS V14.00,2013-10-29 06:51:00,
2013-10-29 01:56:00,24.8,18.9,30.53,ESE,109,8.0,10.0,78,0.00,,OVC090,0.00,0.00,VWS V14.00,2013-10-29 06:56:00,
2013-10-29 02:01:00,24.8,18.9,30.53,ESE,115,3.0,11.0,78,0.00,,OVC090,0.00,0.00,VWS V14.00,2013-10-29 07:01:00,
2013-10-29 02:06:00,24.7,18.8,30.53,ESE,119,5.0,11.0,78,0.00,,OVC090,0.00,0.00,VWS V14.00,2013-10-29 07:06:00,
2013-10-29 02:11:00,24.7,18.8,30.52,ESE,116,4.0,11.0,78,0.00,,OVC090,0.00,0.00,VWS V14.00,2013-10-29 07:11:00,
2013-10-29 02:16:00,24.7,18.8,30.52,ESE,115,5.0,11.0,78,0.00,,OVC090,0.00,0.00,VWS V14.00,2013-10-29 07:16:00,
2013-10-29 02:21:00,24.8,18.9,30.52,ESE,115,4.0,11.0,78,0.00,,OVC090,0.00,0.00,VWS V14.00,2013-10-29 07:21:00,
2013-10-29 02:26:00,24.8,19.2,30.52,ESE,115,8.0,11.0,79,0.00,,OVC090,0.00,0.00,VWS V14.00,2013-10-29 07:26:00,
2013-10-29 02:31:00,24.8,18.9,30.52,ESE,115,5.0,8.0,78,0.00,,OVC090,0.00,0.00,VWS V14.00,2013-10-29 07:31:00,
2013-10-29 02:36:00,24.8,18.9,30.51,ESE,114,7.0,9.0,78,0.00,,OVC090,0.00,0.00,VWS V14.00,2013-10-29 07:36:00,
2013-10-29 02:41:00,24.8,18.9,30.50,ESE,105,4.0,10.0,78,0.00,,OVC100,0.00,0.00,VWS V14.00,2013-10-29 07:41:00,
2013-10-29 02:46:00,24.8,18.9,30.50,ESE,105,5.0,10.0,78,0.00,,OVC100,0.00,0.00,VWS V14.00,2013-10-29 07:46:00,
2013-10-29 02:52:00,24.8,18.9,30.50,East,94,6.0,10.0,78,0.00,,OVC100,0.00,0.00,VWS V14.00,2013-10-29 07:52:00,
2013-10-29 02:57:00,24.8,18.9,30.50,East,97,7.0,10.0,78,0.00,,OVC100,0.00,0.00,VWS V14.00,2013-10-29 07:57:00,
2013-10-29 03:02:00,24.8,18.9,30.50,ESE,109,4.0,9.0,78,0.00,,OVC100,0.00,0.00,VWS V14.00,2013-10-29 08:02:00,
2013-10-29 03:08:00,24.8,18.9,30.49,East,98,9.0,12.0,78,0.00,,OVC100,0.00,0.00,VWS V14.00,2013-10-29 08:08:00,
2013-10-29 03:13:00,24.8,18.9,30.49,ESE,121,9.0,12.0,78,0.00,,OVC100,0.00,0.00,VWS V14.00,2013-10-29 08:13:00,
2013-10-29 03:18:00,24.8,18.9,30.49,ESE,105,7.0,12.0,78,0.00,,OVC100,0.00,0.00,VWS V14.00,2013-10-29 08:18:00,
2013-10-29 03:23:00,24.8,19.2,30.48,ESE,111,5.0,12.0,79,0.00,,OVC100,0.00,0.00,VWS V14.00,2013-10-29 08:23:00,
2013-10-29 03:28:00,24.7,18.8,30.48,ESE,103,5.0,12.0,78,0.00,,OVC100,0.00,0.00,VWS V14.00,2013-10-29 08:28:00,
2013-10-29 03:33:00,24.7,19.1,30.48,ESE,106,8.0,12.0,79,0.00,,OVC100,0.00,0.00,VWS V14.00,2013-10-29 08:33:00,
2013-10-29 03:38:00,24.7,19.1,30.47,ESE,105,7.0,13.0,79,0.00,,OVC100,0.00,0.00,VWS V14.00,2013-10-29 08:38:00,
2013-10-29 03:43:00,24.7,18.8,30.47,ESE,122,9.0,13.0,78,0.00,,OVC065,0.00,0.00,VWS V14.00,2013-10-29 08:43:00,
2013-10-29 03:48:00,24.6,18.7,30.47,ESE,106,5.0,13.0,78,0.00,,OVC065,0.00,0.00,VWS V14.00,2013-10-29 08:48:00,
2013-10-29 03:53:00,24.7,19.1,30.47,ESE,106,4.0,13.0,79,0.00,,OVC065,0.00,0.00,VWS V14.00,2013-10-29 08:53:00,
2013-10-29 03:58:00,24.7,19.1,30.46,ESE,105,8.0,13.0,79,0.00,,OVC065,0.00,0.00,VWS V14.00,2013-10-29 08:58:00,
2013-10-29 04:03:00,24.5,18.9,30.46,East,101,8.0,11.0,79,0.00,,OVC065,0.00,0.00,VWS V14.00,2013-10-29 09:03:00,
2013-10-29 04:08:00,24.4,18.8,30.46,ESE,110,8.0,11.0,79,0.00,,OVC065,0.00,0.00,VWS V14.00,2013-10-29 09:08:00,
2013-10-29 04:13:00,24.4,19.1,30.46,ESE,116,10.0,13.0,80,0.00,,OVC065,0.00,0.00,VWS V14.00,2013-10-29 09:13:00,
2013-10-29 04:18:00,24.4,19.1,30.45,ESE,106,5.0,13.0,80,0.00,,OVC065,0.00,0.00,VWS V14.00,2013-10-29 09:18:00,
2013-10-29 04:23:00,24.4,19.1,30.45,ESE,109,5.0,13.0,80,0.00,,OVC065,0.00,0.00,VWS V14.00,2013-10-29 09:23:00,
2013-10-29 04:28:00,24.4,19.1,30.45,East,97,8.0,13.0,80,0.00,,OVC065,0.00,0.00,VWS V14.00,2013-10-29 09:28:00,
2013-10-29 04:33:00,24.3,19.0,30.45,ESE,107,4.0,13.0,80,0.00,,OVC065,0.00,0.00,VWS V14.00,2013-10-29 09:33:00,
2013-10-29 04:38:00,24.3,19.0,30.45,ESE,105,5.0,13.0,80,0.00,,OVC065,0.00,0.00,VWS V14.00,2013-10-29 09:38:00,
2013-10-29 04:43:00,24.2,18.9,30.44,ESE,105,7.0,13.0,80,0.00,,OVC065,0.00,0.00,VWS V14.00,2013-10-29 09:43:00,
2013-10-29 04:48:00,24.0,19.0,30.44,ESE,108,7.0,13.0,81,0.00,,OVC065,0.00,0.00,VWS V14.00,2013-10-29 09:48:00,
2013-10-29 04:53:00,23.9,18.9,30.43,ESE,109,7.0,13.0,81,0.00,,OVC065,0.00,0.00,VWS V14.00,2013-10-29 09:53:00,
2013-10-29 04:58:00,23.8,18.8,30.43,ESE,111,5.0,13.0,81,0.00,,OVC065,0.00,0.00,VWS V14.00,2013-10-29 09:58:00,
2013-10-29 05:03:00,23.7,18.7,30.43,ESE,113,7.0,10.0,81,0.00,,OVC065,0.00,0.00,VWS V14.00,2013-10-29 10:03:00,
2013-10-29 05:08:00,23.6,18.9,30.43,ESE,113,7.0,12.0,82,0.00,,OVC065,0.00,0.00,VWS V14.00,2013-10-29 10:08:00,
2013-10-29 05:14:00,23.5,18.8,30.42,ESE,116,5.0,12.0,82,0.00,,OVC065,0.00,0.00,VWS V14.00,2013-10-29 10:14:00,
2013-10-29 05:19:00,23.4,18.7,30.42,ESE,116,5.0,12.0,82,0.00,,OVC065,0.00,0.00,VWS V14.00,2013-10-29 10:19:00,
2013-10-29 05:24:00,23.2,18.5,30.41,ESE,115,5.0,12.0,82,0.00,,OVC065,0.00,0.00,VWS V14.00,2013-10-29 10:24:00,
2013-10-29 05:29:00,23.1,18.7,30.41,ESE,113,8.0,12.0,83,0.00,,OVC065,0.00,0.00,VWS V14.00,2013-10-29 10:29:00,
2013-10-29 05:34:00,22.9,18.5,30.41,ESE,112,5.0,9.0,83,0.00,,OVC065,0.00,0.00,VWS V14.00,2013-10-29 10:34:00,
2013-10-29 05:39:00,22.9,18.5,30.41,ESE,112,5.0,9.0,83,0.00,,OVC065,0.00,0.00,VWS V14.00,2013-10-29 10:39:00,
2013-10-29 05:44:00,22.8,18.7,30.40,ESE,109,4.0,9.0,84,0.00,,OVC060,0.00,0.00,VWS V14.00,2013-10-29 10:44:00,
2013-10-29 05:49:00,22.8,18.7,30.40,ESE,109,5.0,9.0,84,0.00,,OVC060,0.00,0.00,VWS V14.00,2013-10-29 10:49:00,
2013-10-29 05:54:00,22.8,18.7,30.41,ESE,109,4.0,9.0,84,0.00,,OVC060,0.00,0.00,VWS V14.00,2013-10-29 10:54:00,
2013-10-29 05:59:00,22.8,18.7,30.40,ESE,109,5.0,9.0,84,0.00,,OVC060,0.00,0.00,VWS V14.00,2013-10-29 10:59:00,
2013-10-29 06:04:00,22.8,18.7,30.40,ESE,107,5.0,8.0,84,0.00,,OVC060,0.00,0.00,VWS V14.00,2013-10-29 11:04:00,
2013-10-29 06:09:00,22.8,18.7,30.40,ESE,106,4.0,8.0,84,0.00,,OVC060,0.00,0.00,VWS V14.00,2013-10-29 11:09:00,
2013-10-29 06:14:00,22.7,18.6,30.40,ESE,106,4.0,8.0,84,0.00,,OVC060,0.00,0.00,VWS V14.00,2013-10-29 11:14:00,
2013-10-29 06:19:00,22.7,18.6,30.40,ESE,106,5.0,8.0,84,0.00,,OVC060,0.00,0.00,VWS V14.00,2013-10-29 11:19:00,
2013-10-29 06:24:00,22.6,18.5,30.40,ESE,107,5.0,8.0,84,0.00,,OVC060,0.00,0.00,VWS V14.00,2013-10-29 11:24:00,
2013-10-29 06:29:00,22.6,18.5,30.40,ESE,107,4.0,8.0,84,0.00,,OVC060,0.00,0.00,VWS V14.00,2013-10-29 11:29:00,
2013-10-29 06:34:00,22.5,18.7,30.40,ESE,107,4.0,8.0,85,0.00,,OVC060,0.00,0.00,VWS V14.00,2013-10-29 11:34:00,
2013-10-29 06:39:00,22.5,18.7,30.40,ESE,107,5.0,8.0,85,0.00,,OVC060,0.00,0.00,VWS V14.00,2013-10-29 11:39:00,
2013-10-29 06:44:00,22.5,18.7,30.40,ESE,107,4.0,8.0,85,0.00,,OVC120,0.00,0.00,VWS V14.00,2013-10-29 11:44:00,
2013-10-29 06:49:00,22.6,18.8,30.40,ESE,107,3.0,8.0,85,0.00,,OVC120,0.00,0.00,VWS V14.00,2013-10-29 11:49:00,
2013-10-29 06:54:00,22.5,18.7,30.40,ESE,106,4.0,8.0,85,0.00,,OVC120,0.00,0.00,VWS V14.00,2013-10-29 11:54:00,
2013-10-29 06:59:00,22.5,18.7,30.39,ESE,105,4.0,4.0,85,0.00,,OVC120,0.00,0.00,VWS V14.00,2013-10-29 11:59:00,
2013-10-29 07:04:00,22.3,18.5,30.39,ESE,102,4.0,7.0,85,0.00,,OVC120,0.00,0.00,VWS V14.00,2013-10-29 12:04:00,
2013-10-29 07:09:00,22.2,18.4,30.40,ESE,102,3.0,7.0,85,0.00,,OVC120,0.00,0.00,VWS V14.00,2013-10-29 12:09:00,
2013-10-29 07:14:00,22.2,18.4,30.39,East,101,6.0,7.0,85,0.00,,OVC120,0.00,0.00,VWS V14.00,2013-10-29 12:14:00,
2013-10-29 07:19:00,22.1,18.3,30.39,East,99,6.0,7.0,85,0.00,,OVC120,0.00,0.00,VWS V14.00,2013-10-29 12:19:00,
2013-10-29 07:24:00,22.1,18.3,30.39,East,99,5.0,9.0,85,0.00,,OVC120,0.00,0.00,VWS V14.00,2013-10-29 12:24:00,
2013-10-29 07:29:00,22.1,18.3,30.39,East,99,5.0,5.0,85,0.00,,OVC120,0.00,0.00,VWS V14.00,2013-10-29 12:29:00,
2013-10-29 07:34:00,22.2,18.4,30.39,East,98,3.0,8.0,85,0.00,,OVC120,0.00,0.00,VWS V14.00,2013-10-29 12:34:00,
2013-10-29 07:39:00,22.3,18.5,30.39,East,98,5.0,8.0,85,0.00,,OVC055,0.00,0.00,VWS V14.00,2013-10-29 12:39:00,
2013-10-29 07:44:00,22.4,18.6,30.39,East,99,7.0,8.0,85,0.00,,OVC055,0.00,0.00,VWS V14.00,2013-10-29 12:44:00,
2013-10-29 07:50:00,22.5,18.7,30.39,East,98,6.0,8.0,85,0.00,,OVC055,0.00,0.00,VWS V14.00,2013-10-29 12:50:00,
2013-10-29 07:55:00,22.5,18.7,30.39,East,97,6.0,8.0,85,0.00,,OVC055,0.00,0.00,VWS V14.00,2013-10-29 12:55:00,
2013-10-29 08:00:00,22.7,18.9,30.39,East,97,5.0,7.0,85,0.00,,OVC055,0.00,0.00,VWS V14.00,2013-10-29 13:00:00,
2013-10-29 08:05:00,22.8,19.0,30.39,East,97,3.0,7.0,85,0.00,,OVC055,0.00,0.00,VWS V14.00,2013-10-29 13:05:00,
2013-10-29 08:10:00,22.9,19.1,30.39,East,97,3.0,7.0,85,0.00,,OVC055,0.00,0.00,VWS V14.00,2013-10-29 13:10:00,
2013-10-29 08:15:00,23.0,18.9,30.39,East,97,5.0,7.0,84,0.00,,OVC055,0.00,0.00,VWS V14.00,2013-10-29 13:15:00,
2013-10-29 08:20:00,23.1,19.0,30.39,East,97,5.0,7.0,84,0.00,,OVC055,0.00,0.00,VWS V14.00,2013-10-29 13:20:00,
2013-10-29 08:25:00,23.1,18.7,30.40,East,97,7.0,7.0,83,0.00,,OVC055,0.00,0.00,VWS V14.00,2013-10-29 13:25:00,
2013-10-29 08:30:00,23.3,18.9,30.40,East,96,6.0,6.0,83,0.00,,OVC055,0.00,0.00,VWS V14.00,2013-10-29 13:30:00,
2013-10-29 08:35:00,23.3,18.9,30.40,East,96,6.0,7.0,83,0.00,,OVC055,0.00,0.00,VWS V14.00,2013-10-29 13:35:00,
2013-10-29 08:40:00,23.4,19.0,30.39,East,96,5.0,7.0,83,0.00,,OVC055,0.00,5.00,VWS V14.00,2013-10-29 13:40:00,
2013-10-29 08:45:00,23.4,19.0,30.39,East,96,5.0,7.0,83,0.00,,OVC055,0.00,5.00,VWS V14.00,2013-10-29 13:45:00,
2013-10-29 08:50:00,23.5,19.1,30.39,East,96,6.0,8.0,83,0.00,,OVC055,0.00,7.00,VWS V14.00,2013-10-29 13:50:00,
2013-10-29 08:55:00,23.6,18.9,30.39,East,96,7.0,8.0,82,0.00,,OVC055,0.00,7.00,VWS V14.00,2013-10-29 13:55:00,
2013-10-29 09:00:00,23.7,19.3,30.39,East,96,6.0,6.0,83,0.00,,OVC055,0.00,11.00,VWS V14.00,2013-10-29 14:00:00,
2013-10-29 09:05:00,23.7,19.0,30.38,East,96,3.0,7.0,82,0.00,,OVC055,0.00,16.00,VWS V14.00,2013-10-29 14:05:00,
2013-10-29 09:10:00,23.8,19.1,30.39,East,96,5.0,7.0,82,0.00,,OVC055,0.00,14.00,VWS V14.00,2013-10-29 14:10:00,
2013-10-29 09:15:00,23.8,19.1,30.39,East,96,5.0,7.0,82,0.00,,OVC055,0.00,12.00,VWS V14.00,2013-10-29 14:15:00,
2013-10-29 09:20:00,23.9,19.2,30.39,East,96,3.0,7.0,82,0.00,,OVC055,0.00,11.00,VWS V14.00,2013-10-29 14:20:00,
2013-10-29 09:25:00,23.9,19.2,30.40,East,96,6.0,7.0,82,0.00,,OVC055,0.00,12.00,VWS V14.00,2013-10-29 14:25:00,
2013-10-29 09:30:00,23.9,19.2,30.40,East,94,5.0,7.0,82,0.00,,OVC055,0.00,14.00,VWS V14.00,2013-10-29 14:30:00,
2013-10-29 09:35:00,24.0,19.3,30.39,East,94,7.0,9.0,82,0.00,,OVC055,0.00,21.00,VWS V14.00,2013-10-29 14:35:00,
2013-10-29 09:40:00,24.0,19.3,30.40,East,94,5.0,9.0,82,0.00,,OVC055,0.00,23.00,VWS V14.00,2013-10-29 14:40:00,
2013-10-29 09:45:00,24.1,19.4,30.40,East,92,3.0,9.0,82,0.00,,OVC055,0.00,26.00,VWS V14.00,2013-10-29 14:45:00,
2013-10-29 09:50:00,24.2,19.2,30.40,East,92,5.0,9.0,81,0.00,,OVC055,0.00,26.00,VWS V14.00,2013-10-29 14:50:00,
2013-10-29 09:55:00,24.2,19.2,30.39,East,92,5.0,9.0,81,0.00,,OVC055,0.00,30.00,VWS V14.00,2013-10-29 14:55:00,
2013-10-29 10:00:00,24.2,19.2,30.39,East,92,7.0,8.0,81,0.00,,OVC055,0.00,30.00,VWS V14.00,2013-10-29 15:00:00,
2013-10-29 10:05:00,24.3,19.3,30.39,East,92,5.0,8.0,81,0.00,,OVC055,0.00,42.00,VWS V14.00,2013-10-29 15:05:00,
2013-10-29 10:10:00,24.5,19.5,30.39,East,93,6.0,8.0,81,0.00,,OVC055,0.00,42.00,VWS V14.00,2013-10-29 15:10:00,
2013-10-29 10:15:00,24.5,19.5,30.39,East,92,6.0,8.0,81,0.00,,OVC055,0.00,53.00,VWS V14.00,2013-10-29 15:15:00,
2013-10-29 10:20:00,24.6,19.6,30.38,East,92,6.0,8.0,81,0.00,,OVC055,0.00,56.00,VWS V14.00,2013-10-29 15:20:00,
2013-10-29 10:25:00,24.7,19.7,30.38,East,95,5.0,8.0,81,0.00,,OVC055,0.00,56.00,VWS V14.00,2013-10-29 15:25:00,
2013-10-29 10:30:00,24.9,19.9,30.38,East,95,6.0,7.0,81,0.00,,OVC055,0.00,72.00,VWS V14.00,2013-10-29 15:30:00,
2013-10-29 10:35:00,25.0,19.7,30.38,East,95,7.0,8.0,80,0.00,,OVC055,0.00,93.00,VWS V14.00,2013-10-29 15:35:00,
2013-10-29 10:40:00,25.1,19.8,30.37,East,93,5.0,8.0,80,0.00,,OVC050,0.00,102.00,VWS V14.00,2013-10-29 15:40:00,
2013-10-29 10:45:00,25.3,20.0,30.37,East,94,6.0,8.0,80,0.00,,OVC050,0.00,111.00,VWS V14.00,2013-10-29 15:45:00,
2013-10-29 10:51:00,25.6,20.3,30.37,East,95,5.0,8.0,80,0.00,,OVC050,0.00,118.00,VWS V14.00,2013-10-29 15:51:00,
2013-10-29 10:56:00,25.9,20.6,30.36,East,97,5.0,8.0,80,0.00,,OVC050,0.00,178.00,VWS V14.00,2013-10-29 15:56:00,
2013-10-29 11:01:00,26.2,20.9,30.37,East,98,5.0,8.0,80,0.00,,OVC050,0.00,211.00,VWS V14.00,2013-10-29 16:01:00,
2013-10-29 11:06:00,26.5,20.9,30.36,ESE,102,7.0,9.0,79,0.00,,OVC050,0.00,202.00,VWS V14.00,2013-10-29 16:06:00,
2013-10-29 11:11:00,26.6,20.7,30.36,ESE,104,7.0,9.0,78,0.00,,OVC050,0.00,188.00,VWS V14.00,2013-10-29 16:11:00,
2013-10-29 11:16:00,26.9,21.3,30.36,ESE,103,7.0,9.0,79,0.00,,OVC050,0.00,213.00,VWS V14.00,2013-10-29 16:16:00,
2013-10-29 11:21:00,27.2,21.3,30.35,ESE,105,7.0,9.0,78,0.00,,OVC050,0.00,230.00,VWS V14.00,2013-10-29 16:21:00,
2013-10-29 11:26:00,27.6,22.0,30.35,ESE,107,4.0,9.0,79,0.00,,OVC050,0.00,271.00,VWS V14.00,2013-10-29 16:26:00,
2013-10-29 11:31:00,27.9,21.9,30.35,ESE,107,4.0,5.0,78,0.00,,OVC050,0.00,348.00,VWS V14.00,2013-10-29 16:31:00,
2013-10-29 11:36:00,28.3,22.0,30.35,ESE,105,4.0,8.0,77,0.00,,OVC050,0.00,309.00,VWS V14.00,2013-10-29 16:36:00,
2013-10-29 11:41:00,29.3,23.3,30.35,ESE,107,3.0,8.0,78,0.00,,OVC060,0.00,613.00,VWS V14.00,2013-10-29 16:41:00,
2013-10-29 11:46:00,29.6,23.0,30.35,SE,130,3.0,10.0,76,0.00,,OVC060,0.00,230.00,VWS V14.00,2013-10-29 16:46:00,
2013-10-29 11:51:00,29.1,22.5,30.34,ESE,119,8.0,10.0,76,0.00,,OVC060,0.00,185.00,VWS V14.00,2013-10-29 16:51:00,
2013-10-29 11:56:00,29.0,22.7,30.34,SE,126,5.0,10.0,77,0.00,,OVC060,0.00,225.00,VWS V14.00,2013-10-29 16:56:00,
2013-10-29 12:01:00,29.0,22.7,30.35,ESE,123,7.0,9.0,77,0.00,,OVC060,0.00,204.00,VWS V14.00,2013-10-29 17:01:00,
2013-10-29 12:06:00,28.9,22.6,30.35,SE,126,3.0,9.0,77,0.00,,OVC060,0.00,209.00,VWS V14.00,2013-10-29 17:06:00,
2013-10-29 12:11:00,29.0,23.0,30.34,SE,126,4.0,9.0,78,0.00,,OVC060,0.00,207.00,VWS V14.00,2013-10-29 17:11:00,
2013-10-29 12:16:00,29.0,23.0,30.35,SE,126,2.0,9.0,78,0.00,,OVC060,0.00,204.00,VWS V14.00,2013-10-29 17:16:00,
2013-10-29 12:21:00,29.0,23.0,30.34,SE,128,9.0,9.0,78,0.00,,OVC060,0.00,209.00,VWS V14.00,2013-10-29 17:21:00,
2013-10-29 12:26:00,29.2,23.2,30.34,ESE,118,8.0,9.0,78,0.00,,OVC060,0.00,200.00,VWS V14.00,2013-10-29 17:26:00,
2013-10-29 12:31:00,29.3,23.0,30.34,ESE,111,7.0,9.0,77,0.00,,OVC060,0.00,204.00,VWS V14.00,2013-10-29 17:31:00,
2013-10-29 12:36:00,29.1,22.8,30.34,ESE,118,4.0,9.0,77,0.00,,OVC060,0.00,211.00,VWS V14.00,2013-10-29 17:36:00,
2013-10-29 12:41:00,29.3,23.3,30.34,ESE,111,5.0,9.0,78,0.00,,OVC070,0.00,220.00,VWS V14.00,2013-10-29 17:41:00,
2013-10-29 12:46:00,29.6,23.3,30.34,SE,146,6.0,9.0,77,0.00,,OVC070,0.00,229.00,VWS V14.00,2013-10-29 17:46:00,
2013-10-29 12:51:00,29.6,23.3,30.33,SE,134,4.0,9.0,77,0.00,,OVC070,0.00,234.00,VWS V14.00,2013-10-29 17:51:00,
2013-10-29 12:56:00,29.7,23.7,30.33,SE,134,7.0,9.0,78,0.00,,OVC070,0.00,232.00,VWS V14.00,2013-10-29 17:56:00,
2013-10-29 13:01:00,29.8,23.8,30.33,SE,138,4.0,10.0,78,0.00,,OVC070,0.00,214.00,VWS V14.00,2013-10-29 18:01:00,
2013-10-29 13:06:00,29.7,23.4,30.32,SE,129,5.0,10.0,77,0.00,,OVC070,0.00,213.00,VWS V14.00,2013-10-29 18:06:00,
2013-10-29 13:11:00,29.9,23.9,30.32,SE,134,4.0,10.0,78,0.00,,OVC070,0.00,209.00,VWS V14.00,2013-10-29 18:11:00,
2013-10-29 13:16:00,30.0,23.7,30.31,SE,134,4.0,10.0,77,0.00,,OVC070,0.00,213.00,VWS V14.00,2013-10-29 18:16:00,
2013-10-29 13:21:00,30.1,24.1,30.31,SE,136,4.0,10.0,78,0.00,,OVC070,0.00,227.00,VWS V14.00,2013-10-29 18:21:00,
2013-10-29 13:26:00,30.3,24.3,30.31,SE,130,6.0,10.0,78,0.00,,OVC070,0.00,237.00,VWS V14.00,2013-10-29 18:26:00,
2013-10-29 13:31:00,30.3,24.0,30.31,ESE,120,4.0,9.0,77,0.00,,OVC070,0.00,244.00,VWS V14.00,2013-10-29 18:31:00,
2013-10-29 13:36:00,30.6,24.6,30.30,SE,126,8.0,9.0,78,0.00,,OVC070,0.00,260.00,VWS V14.00,2013-10-29 18:36:00,
2013-10-29 13:41:00,30.8,24.5,30.30,SE,134,4.0,9.0,77,0.00,,OVC070,0.00,283.00,VWS V14.00,2013-10-29 18:41:00,
2013-10-29 13:47:00,31.0,24.6,30.30,SE,135,7.0,9.0,77,0.00,,OVC070,0.00,281.00,VWS V14.00,2013-10-29 18:47:00,
2013-10-29 13:52:00,30.9,24.5,30.30,SE,134,3.0,10.0,77,0.00,,OVC070,0.00,264.00,VWS V14.00,2013-10-29 18:52:00,
2013-10-29 13:57:00,31.1,24.8,30.29,SE,134,5.0,10.0,77,0.00,,OVC070,0.00,236.00,VWS V14.00,2013-10-29 18:57:00,
2013-10-29 14:02:00,31.2,24.5,30.29,SE,134,7.0,7.0,76,0.00,,OVC070,0.00,239.00,VWS V14.00,2013-10-29 19:02:00,
2013-10-29 14:07:00,31.4,25.0,30.29,ESE,122,4.0,8.0,77,0.00,,OVC070,0.00,253.00,VWS V14.00,2013-10-29 19:07:00,
2013-10-29 14:12:00,31.6,24.9,30.28,ESE,119,4.0,8.0,76,0.00,,OVC070,0.00,250.00,VWS V14.00,2013-10-29 19:12:00,
2013-10-29 14:17:00,31.7,25.0,30.28,ESE,118,7.0,11.0,76,0.00,,OVC070,0.00,246.00,VWS V14.00,2013-10-29 19:17:00,
2013-10-29 14:22:00,31.9,25.2,30.27,ESE,123,8.0,11.0,76,0.00,,OVC070,0.00,232.00,VWS V14.00,2013-10-29 19:22:00,
2013-10-29 14:27:00,32.0,25.3,30.27,ESE,116,7.0,11.0,76,0.00,,OVC070,0.00,241.00,VWS V14.00,2013-10-29 19:27:00,
2013-10-29 14:32:00,32.2,25.5,30.27,ESE,119,4.0,8.0,76,0.00,,OVC070,0.00,258.00,VWS V14.00,2013-10-29 19:32:00,
2013-10-29 14:37:00,32.3,25.6,30.26,ESE,120,7.0,10.0,76,0.00,,OVC070,0.00,301.00,VWS V14.00,2013-10-29 19:37:00,
2013-10-29 14:42:00,32.6,25.6,30.26,SE,127,9.0,10.0,75,0.00,,OVC070,0.00,297.00,VWS V14.00,2013-10-29 19:42:00,
2013-10-29 14:47:00,32.6,25.6,30.26,SE,128,1.0,10.0,75,0.00,,OVC070,0.00,269.00,VWS V14.00,2013-10-29 19:47:00,
2013-10-29 14:52:00,32.7,25.7,30.25,North,360,3.0,10.0,75,0.00,,OVC070,0.00,262.00,VWS V14.00,2013-10-29 19:52:00,
2013-10-29 14:57:00,33.1,26.0,30.25,SE,128,3.0,10.0,75,0.00,,OVC070,0.00,253.00,VWS V14.00,2013-10-29 19:57:00,
2013-10-29 15:02:00,33.0,25.6,30.25,SE,130,2.0,8.0,74,0.00,,OVC070,0.00,255.00,VWS V14.00,2013-10-29 20:02:00,
2013-10-29 15:07:00,32.9,25.9,30.25,SE,131,8.0,8.0,75,0.00,,OVC070,0.00,229.00,VWS V14.00,2013-10-29 20:07:00,
2013-10-29 15:12:00,33.0,26.0,30.25,SE,131,4.0,8.0,75,0.00,,OVC070,0.00,229.00,VWS V14.00,2013-10-29 20:12:00,
2013-10-29 15:17:00,33.0,25.6,30.25,SE,132,5.0,8.0,74,0.00,,OVC070,0.00,216.00,VWS V14.00,2013-10-29 20:17:00,
2013-10-29 15:22:00,33.0,25.6,30.25,SE,132,5.0,8.0,74,0.00,,OVC070,0.00,206.00,VWS V14.00,2013-10-29 20:22:00,
2013-10-29 15:27:00,33.0,26.0,30.25,SE,132,5.0,8.0,75,0.00,,OVC070,0.00,204.00,VWS V14.00,2013-10-29 20:27:00,
2013-10-29 15:32:00,33.0,26.0,30.24,SE,132,9.0,9.0,75,0.00,,OVC070,0.00,199.00,VWS V14.00,2013-10-29 20:32:00,
2013-10-29 15:37:00,33.1,26.0,30.24,SE,133,5.0,9.0,75,0.00,,OVC070,0.00,190.00,VWS V14.00,2013-10-29 20:37:00,
2013-10-29 15:42:00,33.1,26.0,30.24,SE,136,6.0,9.0,75,0.00,,OVC070,0.00,174.00,VWS V14.00,2013-10-29 20:42:00,
2013-10-29 15:47:00,33.2,26.1,30.23,SE,146,10.0,10.0,75,0.00,,OVC070,0.00,156.00,VWS V14.00,2013-10-29 20:47:00,
2013-10-29 15:52:00,33.1,26.0,30.23,SE,146,6.0,10.0,75,0.00,,OVC065,0.00,146.00,VWS V14.00,2013-10-29 20:52:00,
2013-10-29 15:57:00,33.0,25.6,30.23,SSE,153,7.0,10.0,74,0.00,,OVC065,0.00,142.00,VWS V14.00,2013-10-29 20:57:00,
2013-10-29 16:02:00,32.9,25.9,30.23,SSE,151,6.0,7.0,75,0.00,,OVC065,0.00,127.00,VWS V14.00,2013-10-29 21:02:00,
2013-10-29 16:07:00,32.9,25.9,30.22,SSE,152,7.0,8.0,75,0.00,,OVC065,0.00,118.00,VWS V14.00,2013-10-29 21:07:00,
2013-10-29 16:12:00,32.9,25.9,30.22,SSE,151,6.0,8.0,75,0.00,,OVC065,0.00,107.00,VWS V14.00,2013-10-29 21:12:00,
2013-10-29 16:17:00,32.9,25.9,30.22,SSE,152,5.0,9.0,75,0.00,,OVC065,0.00,105.00,VWS V14.00,2013-10-29 21:17:00,
2013-10-29 16:22:00,33.0,26.0,30.22,SSE,148,9.0,11.0,75,0.00,,OVC065,0.00,102.00,VWS V14.00,2013-10-29 21:22:00,
2013-10-29 16:27:00,32.8,25.8,30.22,SSE,148,7.0,11.0,75,0.00,,OVC065,0.00,97.00,VWS V14.00,2013-10-29 21:27:00,
2013-10-29 16:32:00,32.9,25.9,30.22,SSE,148,6.0,8.0,75,0.00,,OVC065,0.00,91.00,VWS V14.00,2013-10-29 21:32:00,
2013-10-29 16:37:00,32.8,25.8,30.22,SSE,148,3.0,8.0,75,0.00,,OVC065,0.00,90.00,VWS V14.00,2013-10-29 21:37:00,
2013-10-29 16:42:00,32.8,25.8,30.22,SSE,148,4.0,8.0,75,0.00,,OVC060,0.00,84.00,VWS V14.00,2013-10-29 21:42:00,
2013-10-29 16:47:00,32.8,25.8,30.22,SSE,148,2.0,8.0,75,0.00,,OVC060,0.00,79.00,VWS V14.00,2013-10-29 21:47:00,
2013-10-29 16:53:00,32.8,25.8,30.22,SSE,148,1.0,8.0,75,0.00,,OVC060,0.00,76.00,VWS V14.00,2013-10-29 21:53:00,
2013-10-29 16:58:00,32.9,25.9,30.22,SSE,148,0.0,8.0,75,0.00,,OVC060,0.00,67.00,VWS V14.00,2013-10-29 21:58:00,
2013-10-29 17:03:00,32.9,25.9,30.23,SSE,148,3.0,5.0,75,0.00,,OVC060,0.00,54.00,VWS V14.00,2013-10-29 22:03:00,
2013-10-29 17:08:00,32.9,25.9,30.23,SSE,148,2.0,5.0,75,0.00,,OVC060,0.00,49.00,VWS V14.00,2013-10-29 22:08:00,
2013-10-29 17:13:00,32.9,25.9,30.22,SSE,148,1.0,5.0,75,0.00,,OVC060,0.00,46.00,VWS V14.00,2013-10-29 22:13:00,
2013-10-29 17:18:00,32.8,25.8,30.22,SSE,148,0.0,5.0,75,0.00,,OVC060,0.00,44.00,VWS V14.00,2013-10-29 22:18:00,
2013-10-29 17:23:00,32.8,26.1,30.22,SSE,148,2.0,5.0,76,0.00,,OVC060,0.00,42.00,VWS V14.00,2013-10-29 22:23:00,
2013-10-29 17:28:00,32.7,25.7,30.22,SSE,148,1.0,5.0,75,0.00,,OVC060,0.00,39.00,VWS V14.00,2013-10-29 22:28:00,
2013-10-29 17:33:00,32.7,26.0,30.21,SSE,148,2.0,4.0,76,0.00,,OVC060,0.00,35.00,VWS V14.00,2013-10-29 22:33:00,
2013-10-29 17:38:00,32.7,25.7,30.22,SSE,148,3.0,4.0,75,0.00,,OVC060,0.00,32.00,VWS V14.00,2013-10-29 22:38:00,
2013-10-29 17:43:00,32.6,25.9,30.22,SSE,148,2.0,4.0,76,0.00,,OVC060,0.00,26.00,VWS V14.00,2013-10-29 22:43:00,
2013-10-29 17:48:00,32.6,25.9,30.21,SSE,148,1.0,4.0,76,0.00,,OVC060,0.00,21.00,VWS V14.00,2013-10-29 22:48:00,
2013-10-29 17:53:00,32.6,25.9,30.22,SSE,148,0.0,4.0,76,0.00,,OVC060,0.00,19.00,VWS V14.00,2013-10-29 22:53:00,
2013-10-29 17:58:00,32.6,25.9,30.21,SSE,148,2.0,4.0,76,0.00,,OVC060,0.00,16.00,VWS V14.00,2013-10-29 22:58:00,
2013-10-29 18:03:00,32.6,25.9,30.22,SSE,148,2.0,3.0,76,0.00,,OVC060,0.00,12.00,VWS V14.00,2013-10-29 23:03:00,
2013-10-29 18:08:00,32.5,25.8,30.22,SSE,148,3.0,4.0,76,0.00,,OVC060,0.00,11.00,VWS V14.00,2013-10-29 23:08:00,
2013-10-29 18:13:00,32.5,26.1,30.22,SSE,148,2.0,4.0,77,0.00,,OVC060,0.00,9.00,VWS V14.00,2013-10-29 23:13:00,
2013-10-29 18:18:00,32.5,26.1,30.22,SSE,148,1.0,4.0,77,0.00,,OVC060,0.00,5.00,VWS V14.00,2013-10-29 23:18:00,
2013-10-29 18:23:00,32.5,26.1,30.22,SSE,148,0.0,4.0,77,0.00,,OVC060,0.00,0.00,VWS V14.00,2013-10-29 23:23:00,
2013-10-29 18:28:00,32.4,26.0,30.22,SSE,148,2.0,4.0,77,0.00,,OVC060,0.00,0.00,VWS V14.00,2013-10-29 23:28:00,
2013-10-29 18:33:00,32.4,26.0,30.22,SSE,148,0.0,2.0,77,0.00,,OVC060,0.00,0.00,VWS V14.00,2013-10-29 23:33:00,
2013-10-29 18:38:00,32.3,25.9,30.21,SSE,148,2.0,3.0,77,0.00,,OVC060,0.00,0.00,VWS V14.00,2013-10-29 23:38:00,
2013-10-29 18:43:00,32.3,25.9,30.21,SSE,148,2.0,3.0,77,0.00,,OVC060,0.00,0.00,VWS V14.00,2013-10-29 23:43:00,
2013-10-29 18:48:00,32.2,25.8,30.21,SSE,148,2.0,3.0,77,0.00,,OVC060,0.00,0.00,VWS V14.00,2013-10-29 23:48:00,
2013-10-29 18:54:00,32.2,25.8,30.21,SSE,148,2.0,3.0,77,0.00,,OVC060,0.00,0.00,VWS V14.00,2013-10-29 23:54:00,
2013-10-29 18:59:00,32.1,26.0,30.21,SSE,148,3.0,3.0,78,0.00,,OVC060,0.00,0.00,VWS V14.00,2013-10-29 23:59:00,
2013-10-29 19:05:00,32.1,26.0,30.21,SSE,148,1.0,4.0,78,0.00,,OVC060,0.00,0.00,VWS V14.00,2013-10-30 00:05:00,
2013-10-29 19:10:00,32.1,26.3,30.21,SSE,148,2.0,4.0,79,0.00,,OVC050,0.00,0.00,VWS V14.00,2013-10-30 00:10:00,
2013-10-29 19:15:00,32.1,26.3,30.21,SSE,148,1.0,4.0,79,0.00,,OVC050,0.00,0.00,VWS V14.00,2013-10-30 00:15:00,
2013-10-29 19:20:00,32.1,26.3,30.21,SSE,148,1.0,4.0,79,0.00,,OVC050,0.00,0.00,VWS V14.00,2013-10-30 00:20:00,
2013-10-29 19:25:00,32.0,26.2,30.21,SSE,148,3.0,4.0,79,0.00,,OVC050,0.00,0.00,VWS V14.00,2013-10-30 00:25:00,
2013-10-29 19:30:00,32.0,26.2,30.21,SSE,148,4.0,5.0,79,0.00,,OVC050,0.00,0.00,VWS V14.00,2013-10-30 00:30:00,
2013-10-29 19:35:00,31.9,26.1,30.21,SSE,148,2.0,5.0,79,0.00,,OVC050,0.00,0.00,VWS V14.00,2013-10-30 00:35:00,
2013-10-29 19:40:00,31.9,26.1,30.21,SSE,148,2.0,5.0,79,0.00,,OVC050,0.00,0.00,VWS V14.00,2013-10-30 00:40:00,
2013-10-29 19:45:00,31.9,26.1,30.21,SSE,148,2.0,5.0,79,0.00,,OVC050,0.00,0.00,VWS V14.00,2013-10-30 00:45:00,
2013-10-29 19:50:00,31.8,26.4,30.21,SSE,148,4.0,5.0,80,0.00,,OVC050,0.00,0.00,VWS V14.00,2013-10-30 00:50:00,
2013-10-29 19:55:00,31.8,26.4,30.20,SSE,148,3.0,5.0,80,0.00,,OVC050,0.00,0.00,VWS V14.00,2013-10-30 00:55:00,
2013-10-29 20:00:00,31.8,26.4,30.20,SSE,148,3.0,4.0,80,0.00,,OVC050,0.00,0.00,VWS V14.00,2013-10-30 01:00:00,
2013-10-29 20:05:00,31.8,26.4,30.20,SSE,148,1.0,5.0,80,0.00,,OVC050,0.00,0.00,VWS V14.00,2013-10-30 01:05:00,
2013-10-29 20:10:00,31.8,26.4,30.21,SSE,148,4.0,5.0,80,0.00,,OVC050,0.00,0.00,VWS V14.00,2013-10-30 01:10:00,
2013-10-29 20:15:00,31.8,26.4,30.21,SSE,148,2.0,5.0,80,0.00,,OVC050,0.00,0.00,VWS V14.00,2013-10-30 01:15:00,
2013-10-29 20:20:00,31.8,26.6,30.20,SSE,148,3.0,5.0,81,0.00,,OVC050,0.00,0.00,VWS V14.00,2013-10-30 01:20:00,
2013-10-29 20:25:00,31.8,26.6,30.20,SSE,148,3.0,5.0,81,0.00,,OVC050,0.00,0.00,VWS V14.00,2013-10-30 01:25:00,
2013-10-29 20:30:00,31.7,26.5,30.20,SSE,148,2.0,3.0,81,0.00,,OVC050,0.00,0.00,VWS V14.00,2013-10-30 01:30:00,
2013-10-29 20:35:00,31.8,26.6,30.21,SSE,148,3.0,4.0,81,0.00,,OVC050,0.00,0.00,VWS V14.00,2013-10-30 01:35:00,
2013-10-29 20:40:00,31.7,26.5,30.20,SSE,148,3.0,5.0,81,0.00,,OVC050,0.00,0.00,VWS V14.00,2013-10-30 01:40:00,
2013-10-29 20:45:00,31.7,26.5,30.20,SSE,148,3.0,6.0,81,0.00,,OVC050,0.00,0.00,VWS V14.00,2013-10-30 01:45:00,
2013-10-29 20:50:00,31.7,26.5,30.20,SSE,148,6.0,7.0,81,0.00,,OVC050,0.00,0.00,VWS V14.00,2013-10-30 01:50:00,
2013-10-29 20:55:00,31.7,26.5,30.20,SE,146,2.0,8.0,81,0.00,,OVC050,0.00,0.00,VWS V14.00,2013-10-30 01:55:00,
2013-10-29 21:00:00,31.7,26.5,30.20,SE,146,6.0,6.0,81,0.00,,OVC050,0.00,0.00,VWS V14.00,2013-10-30 02:00:00,
2013-10-29 21:05:00,31.6,26.5,30.19,SE,146,3.0,7.0,81,0.00,,OVC050,0.00,0.00,VWS V14.00,2013-10-30 02:05:00,
2013-10-29 21:10:00,31.6,26.8,30.19,SE,145,4.0,7.0,82,0.00,,OVC050,0.00,0.00,VWS V14.00,2013-10-30 02:10:00,
2013-10-29 21:15:00,31.5,26.6,30.19,SE,145,5.0,7.0,82,0.00,,OVC050,0.00,0.00,VWS V14.00,2013-10-30 02:15:00,
2013-10-29 21:20:00,31.5,26.6,30.19,SE,145,4.0,7.0,82,0.00,,OVC050,0.00,0.00,VWS V14.00,2013-10-30 02:20:00,
2013-10-29 21:25:00,31.5,26.6,30.19,SE,145,5.0,7.0,82,0.00,,OVC050,0.00,0.00,VWS V14.00,2013-10-30 02:25:00,
2013-10-29 21:30:00,31.5,26.9,30.19,SE,145,6.0,6.0,83,0.00,,OVC050,0.00,0.00,VWS V14.00,2013-10-30 02:30:00,
2013-10-29 21:35:00,31.4,26.8,30.18,SE,145,6.0,7.0,83,0.00,,OVC050,0.00,0.00,VWS V14.00,2013-10-30 02:35:00,
2013-10-29 21:40:00,31.4,26.8,30.18,SE,145,7.0,9.0,83,0.00,,OVC048,0.00,0.00,VWS V14.00,2013-10-30 02:40:00,
2013-10-29 21:45:00,31.4,26.8,30.18,SE,144,6.0,9.0,83,0.00,,OVC048,0.00,0.00,VWS V14.00,2013-10-30 02:45:00,
2013-10-29 21:50:00,31.3,26.8,30.18,SE,144,5.0,9.0,83,0.00,,OVC048,0.00,0.00,VWS V14.00,2013-10-30 02:50:00,
2013-10-29 21:55:00,31.3,26.8,30.18,SE,144,6.0,9.0,83,0.00,,OVC048,0.00,0.00,VWS V14.00,2013-10-30 02:55:00,
2013-10-29 22:00:00,31.3,27.0,30.18,SE,144,6.0,7.0,84,0.00,,OVC048,0.00,0.00,VWS V14.00,2013-10-30 03:00:00,
2013-10-29 22:05:00,31.3,27.0,30.18,SE,144,4.0,7.0,84,0.00,,OVC048,0.00,0.00,VWS V14.00,2013-10-30 03:05:00,
2013-10-29 22:11:00,31.2,26.9,30.17,SE,144,7.0,7.0,84,0.00,,OVC048,0.00,0.00,VWS V14.00,2013-10-30 03:11:00,
2013-10-29 22:16:00,31.2,26.9,30.17,SE,144,4.0,8.0,84,0.00,,OVC048,0.00,0.00,VWS V14.00,2013-10-30 03:16:00,
2013-10-29 22:21:00,31.2,26.9,30.17,SE,144,4.0,8.0,84,0.00,,OVC048,0.00,0.00,VWS V14.00,2013-10-30 03:21:00,
2013-10-29 22:26:00,31.1,26.8,30.17,SE,144,5.0,8.0,84,0.00,,OVC048,0.00,0.00,VWS V14.00,2013-10-30 03:26:00,
2013-10-29 22:31:00,31.1,26.8,30.17,SE,144,4.0,7.0,84,0.00,,OVC048,0.00,0.00,VWS V14.00,2013-10-30 03:31:00,
2013-10-29 22:36:00,31.1,27.1,30.17,SE,144,4.0,7.0,85,0.00,,OVC048,0.00,0.00,VWS V14.00,2013-10-30 03:36:00,
2013-10-29 22:41:00,31.1,27.1,30.17,SE,144,5.0,7.0,85,0.00,,OVC047,0.00,0.00,VWS V14.00,2013-10-30 03:41:00,
2013-10-29 22:46:00,31.2,27.2,30.17,SE,144,6.0,7.0,85,0.00,,OVC047,0.00,0.00,VWS V14.00,2013-10-30 03:46:00,
2013-10-29 22:51:00,31.2,27.2,30.17,SE,144,4.0,7.0,85,0.00,,OVC047,0.00,0.00,VWS V14.00,2013-10-30 03:51:00,
2013-10-29 22:56:00,31.2,27.2,30.17,SE,144,4.0,7.0,85,0.00,,OVC047,0.00,0.00,VWS V14.00,2013-10-30 03:56:00,
2013-10-29 23:01:00,31.2,27.2,30.17,SE,144,5.0,6.0,85,0.00,,OVC047,0.00,0.00,VWS V14.00,2013-10-30 04:01:00,
2013-10-29 23:02:00,31.3,27.3,30.17,SE,144,4.0,6.0,85,0.00,,OVC047,0.00,0.00,VWS V14.00,2013-10-30 04:02:00,
2013-10-29 23:06:00,31.3,27.3,30.17,SE,144,5.0,7.0,85,0.00,,OVC047,0.00,0.00,VWS V14.00,2013-10-30 04:06:00,
2013-10-29 23:08:00,31.3,27.3,30.17,SE,144,4.0,7.0,85,0.00,,OVC047,0.00,0.00,VWS V14.00,2013-10-30 04:08:00,
2013-10-29 23:09:00,31.3,27.3,30.17,SE,144,5.0,7.0,85,0.00,,OVC047,0.00,0.00,VWS V14.00,2013-10-30 04:09:00,
2013-10-29 23:11:00,31.3,27.3,30.17,SE,145,6.0,7.0,85,0.00,,OVC047,0.00,0.00,VWS V14.00,2013-10-30 04:11:00,
2013-10-29 23:16:00,31.3,27.0,30.17,SE,145,3.0,7.0,84,0.00,,OVC047,0.00,0.00,VWS V14.00,2013-10-30 04:16:00,
2013-10-29 23:21:00,31.3,27.0,30.17,SE,145,4.0,7.0,84,0.00,,OVC047,0.00,0.00,VWS V14.00,2013-10-30 04:21:00,
2013-10-29 23:26:00,31.3,27.0,30.17,SE,145,4.0,7.0,84,0.00,,OVC047,0.00,0.00,VWS V14.00,2013-10-30 04:26:00,
2013-10-29 23:31:00,31.3,27.3,30.17,SE,146,6.0,8.0,85,0.00,,OVC047,0.00,0.00,VWS V14.00,2013-10-30 04:31:00,
2013-10-29 23:36:00,31.4,27.4,30.17,SSE,148,7.0,9.0,85,0.00,,OVC047,0.00,0.00,VWS V14.00,2013-10-30 04:36:00,
2013-10-29 23:41:00,31.4,27.4,30.17,SSE,149,5.0,9.0,85,0.00,,OVC048,0.00,0.00,VWS V14.00,2013-10-30 04:41:00,
2013-10-29 23:46:00,31.4,27.4,30.17,SSE,150,4.0,9.0,85,0.00,,OVC048,0.00,0.00,VWS V14.00,2013-10-30 04:46:00,
2013-10-29 23:51:00,31.5,27.5,30.17,SSE,153,10.0,10.0,85,0.00,,OVC048,0.00,0.00,VWS V14.00,2013-10-30 04:51:00,
2013-10-29 23:56:00,31.5,27.5,30.17,SSE,163,5.0,11.0,85,0.00,,OVC048,0.00,0.00,VWS V14.00,2013-10-30 04:56:00,